Location: Chuathbaluk
(61.5726°N, 159.2454°W)
Time: 23:15:01
(UTC+00:00)

Max Valier Satellite - Pass Details

Date: 23 January 2021
Orbit: 488 x 504 km, 97.3° (Epoch: 25 February)

Event Time Altitude Azimuth Distance (km) Brightness Sun altitude
Exits shadow 05:13:41 11° 6° (N) 1,669 ? -19.9°
Drops below altitude 10° 05:13:52 10° 5° (N) 1,724 ? -19.9°
Sets 05:16:19 0° 349° (NNW) 2,616 ? -20.2°
